Time,TemperatureF,DewpointF,PressureIn,WindDirection,WindDirectionDegrees,WindSpeedMPH,WindSpeedGustMPH,Humidity,HourlyPrecipIn,Conditions,Clouds,dailyrainin,SoftwareType,DateUTC
2013-10-26 00:14:00,32.0,29.0,-100.00,ENE,65,0.0,2.0,87,0.00,,,-99.99,,2013-10-26 04:14:00,
2013-10-26 00:24:00,32.0,29.0,-100.00,ENE,70,0.0,1.0,88,0.00,,,-99.99,,2013-10-26 04:24:00,
2013-10-26 00:34:00,32.0,29.0,-100.00,ENE,70,0.0,1.0,88,0.00,,,-99.99,,2013-10-26 04:34:00,
2013-10-26 00:54:00,31.0,29.0,-100.00,East,100,1.0,2.0,90,0.00,,,-99.99,,2013-10-26 04:54:00,
2013-10-26 01:13:00,31.0,29.0,-100.00,NE,55,0.0,2.0,91,0.00,,,-99.99,,2013-10-26 05:13:00,
2013-10-26 01:23:00,31.0,28.0,-100.00,NE,50,1.0,2.0,91,0.00,,,-99.99,,2013-10-26 05:23:00,
2013-10-26 01:34:00,31.0,28.0,-100.00,NE,50,1.0,2.0,91,0.00,,,-99.99,,2013-10-26 05:34:00,
2013-10-26 01:52:00,32.0,30.0,-100.00,NE,35,0.0,1.0,91,0.00,,,-99.99,,2013-10-26 05:52:00,
2013-10-26 02:12:00,31.0,29.0,-100.00,NNE,25,1.0,2.0,91,0.00,,,-99.99,,2013-10-26 06:12:00,
2013-10-26 02:22:00,30.0,29.0,-100.00,East,90,1.0,2.0,93,0.00,,,-99.99,,2013-10-26 06:22:00,
2013-10-26 02:32:00,30.0,29.0,-100.00,East,90,1.0,2.0,93,0.00,,,-99.99,,2013-10-26 06:32:00,
2013-10-26 02:42:00,30.0,29.0,-100.00,East,90,1.0,2.0,93,0.00,,,-99.99,,2013-10-26 06:42:00,
2013-10-26 02:52:00,30.0,29.0,-100.00,East,90,1.0,2.0,93,0.00,,,-99.99,,2013-10-26 06:52:00,
2013-10-26 03:02:00,30.0,29.0,-100.00,East,90,1.0,2.0,93,0.00,,,-99.99,,2013-10-26 07:02:00,
2013-10-26 09:22:00,34.0,29.0,-100.00,ENE,60,0.0,-999.0,81,0.00,,,-99.99,,2013-10-26 13:22:00,
2013-10-26 09:42:00,35.0,29.0,-100.00,SSW,210,0.0,6.0,78,0.00,,,-99.99,,2013-10-26 13:42:00,
2013-10-26 09:52:00,37.0,29.0,-100.00,SSW,205,1.0,4.0,74,0.00,,,-99.99,,2013-10-26 13:52:00,
2013-10-26 10:02:00,37.0,29.0,-100.00,SSW,205,1.0,4.0,74,0.00,,,-99.99,,2013-10-26 14:02:00,
2013-10-26 10:22:00,38.0,29.0,-100.00,WSW,250,6.0,12.0,68,0.00,,,-99.99,,2013-10-26 14:22:00,
2013-10-26 10:42:00,39.0,29.0,-100.00,SW,220,9.0,14.0,66,0.00,,,-99.99,,2013-10-26 14:42:00,
2013-10-26 10:52:00,42.0,30.0,-100.00,WSW,255,6.0,11.0,62,0.00,,,-99.99,,2013-10-26 14:52:00,
2013-10-26 11:02:00,42.0,30.0,-100.00,WSW,255,6.0,11.0,62,0.00,,,-99.99,,2013-10-26 15:02:00,
2013-10-26 11:23:00,43.0,30.0,-100.00,South,185,4.0,9.0,59,0.00,,,-99.99,,2013-10-26 15:23:00,
2013-10-26 11:44:00,46.0,28.0,-100.00,SW,235,7.0,12.0,50,0.00,,,-99.99,,2013-10-26 15:44:00,
2013-10-26 11:55:00,47.0,29.0,-100.00,SW,235,7.0,12.0,48,0.00,,,-99.99,,2013-10-26 15:55:00,
2013-10-26 12:05:00,47.0,29.0,-100.00,SW,235,7.0,12.0,48,0.00,,,-99.99,,2013-10-26 16:05:00,
2013-10-26 12:24:00,49.0,28.0,-100.00,WSW,245,9.0,15.0,44,0.00,,,-99.99,,2013-10-26 16:24:00,
2013-10-26 12:44:00,49.0,27.0,-100.00,SW,225,7.0,19.0,42,0.00,,,-99.99,,2013-10-26 16:44:00,
2013-10-26 12:53:00,51.0,27.0,-100.00,SW,225,7.0,18.0,38,0.00,,,-99.99,,2013-10-26 16:53:00,
2013-10-26 13:03:00,51.0,27.0,-100.00,SW,225,7.0,18.0,38,0.00,,,-99.99,,2013-10-26 17:03:00,
2013-10-26 13:23:00,51.0,26.0,-100.00,WSW,250,9.0,17.0,38,0.00,,,-99.99,,2013-10-26 17:23:00,
2013-10-26 13:43:00,51.0,25.0,-100.00,SSW,200,13.0,21.0,35,0.00,,,-99.99,,2013-10-26 17:43:00,
2013-10-26 13:52:00,51.0,26.0,-100.00,SSW,205,9.0,16.0,37,0.00,,,-99.99,,2013-10-26 17:52:00,
2013-10-26 14:02:00,51.0,26.0,-100.00,SSW,205,9.0,16.0,37,0.00,,,-99.99,,2013-10-26 18:02:00,
2013-10-26 14:22:00,51.0,27.0,-100.00,South,190,6.0,16.0,39,0.00,,,-99.99,,2013-10-26 18:22:00,
2013-10-26 14:42:00,51.0,26.0,-100.00,SW,225,7.0,12.0,37,0.00,,,-99.99,,2013-10-26 18:42:00,
2013-10-26 14:52:00,52.0,25.0,-100.00,SW,220,9.0,13.0,33,0.00,,,-99.99,,2013-10-26 18:52:00,
2013-10-26 15:01:00,52.0,25.0,-100.00,SW,220,9.0,13.0,33,0.00,,,-99.99,,2013-10-26 19:01:00,
2013-10-26 15:22:00,52.0,26.0,-100.00,South,190,6.0,16.0,36,0.00,,,-99.99,,2013-10-26 19:22:00,
2013-10-26 15:42:00,52.0,26.0,-100.00,SSW,210,9.0,14.0,36,0.00,,,-99.99,,2013-10-26 19:42:00,
2013-10-26 15:52:00,52.0,26.0,-100.00,SSW,210,6.0,12.0,36,0.00,,,-99.99,,2013-10-26 19:52:00,
2013-10-26 16:02:00,52.0,26.0,-100.00,SSW,210,6.0,12.0,36,0.00,,,-99.99,,2013-10-26 20:02:00,
2013-10-26 16:22:00,51.0,27.0,-100.00,SSW,200,7.0,14.0,37,0.00,,,-99.99,,2013-10-26 20:22:00,
2013-10-26 16:43:00,52.0,26.0,-100.00,SSW,210,6.0,11.0,37,0.00,,,-99.99,,2013-10-26 20:43:00,
2013-10-26 16:52:00,51.0,26.0,-100.00,SSW,205,4.0,10.0,37,0.00,,,-99.99,,2013-10-26 20:52:00,
2013-10-26 17:02:00,51.0,26.0,-100.00,SSW,205,4.0,10.0,37,0.00,,,-99.99,,2013-10-26 21:02:00,
2013-10-26 17:22:00,52.0,27.0,-100.00,WSW,245,4.0,9.0,37,0.00,,,-99.99,,2013-10-26 21:22:00,
2013-10-26 17:43:00,52.0,26.0,-100.00,SSW,205,6.0,12.0,35,0.00,,,-99.99,,2013-10-26 21:43:00,
2013-10-26 17:54:00,52.0,24.0,-100.00,SW,220,5.0,17.0,33,0.00,,,-99.99,,2013-10-26 21:54:00,
2013-10-26 18:03:00,52.0,24.0,-100.00,SW,220,5.0,17.0,33,0.00,,,-99.99,,2013-10-26 22:03:00,
2013-10-26 18:24:00,52.0,24.0,-100.00,SSW,210,6.0,16.0,33,0.00,,,-99.99,,2013-10-26 22:24:00,
2013-10-26 18:44:00,52.0,26.0,-100.00,South,180,3.0,7.0,34,0.00,,,-99.99,,2013-10-26 22:44:00,
2013-10-26 18:53:00,53.0,26.0,-100.00,SW,235,5.0,9.0,35,0.00,,,-99.99,,2013-10-26 22:53:00,
2013-10-26 19:03:00,53.0,26.0,-100.00,SW,235,5.0,9.0,35,0.00,,,-99.99,,2013-10-26 23:03:00,
2013-10-26 19:22:00,53.0,25.0,-100.00,SW,225,9.0,12.0,33,0.00,,,-99.99,,2013-10-26 23:22:00,
2013-10-26 19:42:00,52.0,26.0,-100.00,West,275,2.0,9.0,36,0.00,,,-99.99,,2013-10-26 23:42:00,
2013-10-26 19:52:00,52.0,27.0,-100.00,NW,310,2.0,7.0,37,0.00,,,-99.99,,2013-10-26 23:52:00,
2013-10-26 20:02:00,52.0,27.0,-100.00,NW,310,2.0,7.0,37,0.00,,,-99.99,,2013-10-27 00:02:00,
2013-10-26 20:22:00,51.0,27.0,-100.00,WNW,295,1.0,4.0,38,0.00,,,-99.99,,2013-10-27 00:22:00,
2013-10-26 20:42:00,51.0,28.0,-100.00,WNW,290,2.0,4.0,39,0.00,,,-99.99,,2013-10-27 00:42:00,
2013-10-26 20:52:00,51.0,28.0,-100.00,West,270,2.0,4.0,41,0.00,,,-99.99,,2013-10-27 00:52:00,
2013-10-26 21:02:00,51.0,28.0,-100.00,West,270,2.0,4.0,41,0.00,,,-99.99,,2013-10-27 01:02:00,
2013-10-26 21:23:00,50.0,30.0,-100.00,South,175,0.0,2.0,44,0.00,,,-99.99,,2013-10-27 01:23:00,
2013-10-26 21:42:00,49.0,30.0,-100.00,SE,135,0.0,2.0,47,0.00,,,-99.99,,2013-10-27 01:42:00,
2013-10-26 21:52:00,48.0,31.0,-100.00,SE,135,0.0,2.0,50,0.00,,,-99.99,,2013-10-27 01:52:00,
2013-10-26 22:02:00,48.0,31.0,-100.00,SE,135,0.0,2.0,50,0.00,,,-99.99,,2013-10-27 02:02:00,
2013-10-26 22:22:00,47.0,32.0,-100.00,SSE,155,0.0,3.0,56,0.00,,,-99.99,,2013-10-27 02:22:00,
2013-10-26 22:42:00,46.0,32.0,-100.00,ESE,110,0.0,3.0,57,0.00,,,-99.99,,2013-10-27 02:42:00,
2013-10-26 22:52:00,47.0,31.0,-100.00,WNW,290,1.0,2.0,52,0.00,,,-99.99,,2013-10-27 02:52:00,
2013-10-26 23:02:00,47.0,31.0,-100.00,WNW,290,1.0,2.0,52,0.00,,,-99.99,,2013-10-27 03:02:00,
2013-10-26 23:22:00,48.0,31.0,-100.00,WSW,245,1.0,4.0,52,0.00,,,-99.99,,2013-10-27 03:22:00,
2013-10-26 23:45:00,48.0,31.0,-100.00,WNW,295,2.0,4.0,51,0.00,,,-99.99,,2013-10-27 03:45:00,
2013-10-26 23:54:00,48.0,31.0,-100.00,West,275,3.0,6.0,51,0.00,,,-99.99,,2013-10-27 03:54:00,